St. George Weather Center

Moon Phase Calendar



Online Cameras

 


      

Current Conditions in Saint George
9/18/2021 8:41:33 AM

63°F
Feels Like 64
Mist
Humidity
100%
Pressure
30.09"
Wind
4.6 mph (E)
Dew Point
63°F
UV Index
1/10 (Low)
Visibility
2 mi

Hourly Forecast

Date & Time Sat, Sep 18
8:00 AM
Sat, Sep 18
9:00 AM
Sat, Sep 18
10:00 AM
Sat, Sep 18
11:00 AM
Sat, Sep 18
12:00 PM
Sat, Sep 18
1:00 PM
Sat, Sep 18
2:00 PM
Sat, Sep 18
3:00 PM
Sat, Sep 18
4:00 PM
Sat, Sep 18
5:00 PM
Sat, Sep 18
6:00 PM
Sat, Sep 18
7:00 PM
Sat, Sep 18
8:00 PM
Sat, Sep 18
9:00 PM
Sat, Sep 18
10:00 PM
Sat, Sep 18
11:00 PM
Sun, Sep 19
12:00 AM
Sun, Sep 19
1:00 AM
Sun, Sep 19
2:00 AM
Sun, Sep 19
3:00 AM
Sun, Sep 19
4:00 AM
Sun, Sep 19
5:00 AM
Sun, Sep 19
6:00 AM
Sun, Sep 19
7:00 AM
Sun, Sep 19
8:00 AM
Sun, Sep 19
9:00 AM
Sun, Sep 19
10:00 AM
Sun, Sep 19
11:00 AM
Sun, Sep 19
12:00 PM
Sun, Sep 19
1:00 PM
Sun, Sep 19
2:00 PM
Sun, Sep 19
3:00 PM
Sun, Sep 19
4:00 PM
Sun, Sep 19
5:00 PM
Sun, Sep 19
6:00 PM
Sun, Sep 19
7:00 PM
Sun, Sep 19
8:00 PM
Sun, Sep 19
9:00 PM
Sun, Sep 19
10:00 PM
Sun, Sep 19
11:00 PM
Mon, Sep 20
12:00 AM
Mon, Sep 20
1:00 AM
Mon, Sep 20
2:00 AM
Mon, Sep 20
3:00 AM
Mon, Sep 20
4:00 AM
Mon, Sep 20
5:00 AM
Mon, Sep 20
6:00 AM
Mon, Sep 20
7:00 AM
Condition
Clouds

Clouds

Clouds

Clouds

Clouds

Clouds

Clouds

Clouds

Clouds

Clouds

Clouds

Clouds

Rain

Rain

Clouds

Clouds

Clouds

Clouds

Clouds

Clouds

Clouds

Clouds

Clouds

Clouds

Clouds

Clear

Clear

Clear

Clear

Clear

Clear

Clear

Clear

Clear

Clear

Clear

Clear

Clear

Clear

Clear

Clear

Clear

Clear

Clear

Clear

Clear

Clear

Clear
Temperature 63°F63°F64°F66°F67°F66°F68°F67°F66°F66°F66°F65°F64°F64°F64°F64°F63°F62°F61°F59°F58°F57°F56°F56°F58°F60°F62°F64°F66°F67°F68°F68°F68°F66°F63°F60°F58°F57°F56°F56°F55°F54°F53°F53°F52°F52°F52°F52°F
Feels Like 64°F64°F65°F66°F68°F67°F68°F68°F67°F67°F66°F65°F65°F64°F65°F64°F64°F62°F60°F59°F57°F56°F55°F54°F56°F59°F61°F63°F65°F66°F66°F66°F66°F65°F62°F58°F57°F55°F55°F54°F53°F53°F52°F51°F51°F50°F50°F50°F
Cloudiness 92%90%91%83%76%76%75%43%58%57%51%47%43%15%35%35%43%48%44%57%29%20%15%12%12%6%3%2%2%2%2%0%0%0%0%0%0%0%0%0%1%1%2%5%5%6%4%5%
Visibility 6 mi6 mi6 mi6 mi1 mi1 mi1 mi1 mi2 mi2 mi6 mi6 mi6 mi6 mi6 mi6 mi6 mi6 mi6 mi6 mi6 mi6 mi6 mi6 mi6 mi6 mi6 mi6 mi6 mi6 mi6 mi6 mi6 mi6 mi6 mi6 mi6 mi6 mi6 mi6 mi6 mi6 mi6 mi6 mi6 mi6 mi6 mi6 mi
Precipitation 0%0%0%0%0%0%0%0%3%27%33%37%49%52%46%46%46%46%34%0%0%0%0%0%0%0%0%0%0%0%0%0%0%0%0%0%0%0%0%0%0%0%0%0%0%0%0%0%
Humidity 98%100%97%93%89%90%86%89%91%90%93%95%97%96%93%93%92%85%84%84%80%77%75%73%67%61%56%53%51%49%47%47%49%53%63%64%65%68%70%72%72%72%73%73%74%75%75%74%
Dew Point 63°F63°F63°F64°F64°F63°F63°F63°F63°F63°F64°F63°F63°F63°F62°F62°F61°F57°F56°F54°F51°F49°F48°F47°F47°F47°F46°F46°F47°F47°F46°F46°F48°F48°F50°F48°F47°F46°F47°F47°F46°F45°F45°F44°F44°F44°F44°F44°F
Pressure 30.09"30.09"30.09"30.06"30.03"30.03"29.97"29.94"29.94"29.91"29.91"29.94"29.94"29.94"29.94"29.97"29.97"29.97"29.97"29.97"30"30.03"30.03"30.09"30.09"30.12"30.12"30.12"30.12"30.12"30.12"30.09"30.12"30.12"30.15"30.18"30.21"30.21"30.24"30.24"30.27"30.27"30.3"30.3"30.3"30.33"30.33"30.36"
Wind Speed 3.4 mph3.2 mph3.5 mph5 mph4.5 mph4.8 mph5.7 mph8.2 mph5.9 mph3.3 mph2.6 mph6 mph6.2 mph7.4 mph10.8 mph12.2 mph13.2 mph12.7 mph13.9 mph13.2 mph14.4 mph13.8 mph14.6 mph15.4 mph15.4 mph15.5 mph15.2 mph13.7 mph11.9 mph10.3 mph9.6 mph9.1 mph8.3 mph7.7 mph6.3 mph6.2 mph6.8 mph7.1 mph7.1 mph6.8 mph6.6 mph6.4 mph6.5 mph6.5 mph6.2 mph6.5 mph6.7 mph6.9 mph
Wind
Direction
43°
NE
38°
NE
35°
NE
102°
ESE
123°
ESE
126°
SE
132°
SE
134°
SE
141°
SE
167°
SSE
265°
W
303°
WNW
320°
NW
334°
NNW
342°
NNW
350°
N

N
358°
N
357°
N
357°
N
353°
N
358°
N
359°
N

N

N

N

N

N

N

N

N

N
357°
N
358°
N

N

N
13°
NNE
24°
NNE
31°
NNE
18°
NNE

N
349°
N
347°
NNW
357°
N
358°
N

N

N
20°
NNE

Daily Forecast

Date High Low Precip. Humidity
Today
Sep 18

Rain
68 °F
63 °F
52%
89%
Sunday
Sep 19

Clear
68 °F
56 °F
46%
51%
Monday
Sep 20

Clear
62 °F
52 °F
0%
52%
Tuesday
Sep 21

Clear
63 °F
54 °F
0%
72%
Wednesday
Sep 22

Clouds
63 °F
58 °F
0%
82%
Thursday
Sep 23

Rain
65 °F
61 °F
61%
80%
Friday
Sep 24

Rain
65 °F
55 °F
100%
68%
Saturday
Sep 25

Clouds
65 °F
53 °F
0%
68%
Sunday
Sep 26

Rain
64 °F
58 °F
20%
75%
Monday
Sep 27

Rain
64 °F
58 °F
69%
96%
Tuesday
Sep 28

Clear
61 °F
53 °F
25%
59%
Wednesday
Sep 29

Rain
58 °F
53 °F
100%
87%
Thursday
Sep 30

Clear
64 °F
49 °F
8%
64%
Friday
Oct 1

Clear
66 °F
48 °F
0%
56%
Saturday
Oct 2

Clear
64 °F
54 °F
0%
68%
Sunday
Oct 3

Rain
68 °F
50 °F
96%
73%

Temperature 8-14 Day Outlook



Precipitation 8-14 Day Outlook




Quick Links
St. George News
St. George Photos
St. George Videos




About Us
Contact Us
Site Map
Search Site
Advertise With Us
   
St.George.USCoast.info
THE ST. GEORGE WEBSITE

Copyright 2021, Coastal Town
Privacy    |    Legal